Wind_Speed
7 8 8 8 9 9 9 10 10 11 12 13 13 14 14 14 14 14 14 14 14 14 14 14 14 15 15 15 16 16 17 17 17 17 18 18 17 17 17 17 17 17 18
9 10 10 10 11 11 11 11 11 12 13 14 15 15 15 15 15 14 15 15 15 15 15 15 16 16 16 16 17 18 18 18 18 19 19 19 18 18 17 18 18 19 19
11 11 11 12 13 13 12 12 12 13 14 14 15 15 15 16 16 15 16 16 16 16 16 17 17 17 18 18 19 19 20 20 20 20 20 20 20 19 19 19 19 20 21
12 13 13 13 14 14 14 14 14 14 15 15 16 16 16 16 16 17 17 17 17 17 18 18 18 19 20 20 20 21 21 21 21 21 20 21 20 20 20 20 20 21 22
14 14 15 15 15 16 15 15 15 15 16 16 16 17 17 17 17 18 18 18 18 19 19 19 20 20 21 21 22 22 22 22 22 22 21 21 21 21 21 21 22 22 23
16 16 16 16 17 17 16 17 17 17 17 17 17 17 18 18 18 19 19 20 19 20 20 21 21 22 22 22 23 22 23 23 23 23 23 22 22 22 22 23 22 23 23
17 18 18 18 18 17 17 18 18 18 18 19 18 18 19 19 20 20 21 20 21 21 22 22 23 23 23 23 23 23 23 23 24 24 24 23 23 23 23 23 23 23 23
18 19 20 19 18 18 19 19 19 20 20 20 19 20 20 21 21 22 22 22 23 23 24 24 24 25 24 24 24 24 24 24 25 25 25 25 24 24 24 24 24 24 25
20 20 20 20 20 20 20 20 21 22 21 21 21 22 22 23 23 24 24 24 25 24 25 25 25 25 25 25 25 25 25 25 25 26 26 26 25 25 25 25 26 26 26
21 21 22 21 21 21 21 22 23 23 23 22 23 24 24 24 24 25 25 26 26 25 26 25 25 25 26 26 26 26 26 26 26 26 26 26 26 26 27 27 26 26 26
23 23 23 23 23 23 23 23 24 25 24 24 25 25 25 25 25 25 26 26 25 25 26 26 26 26 27 27 27 26 26 27 27 26 26 26 25 25 26 26 27 27 27
25 25 25 25 25 24 24 25 25 26 26 26 26 26 26 26 26 26 27 26 26 26 26 26 26 26 27 27 27 27 27 27 27 26 25 25 25 25 26 26 27 27 28
27 26 27 26 26 26 26 26 27 27 27 27 28 28 27 27 27 27 27 27 26 26 26 26 27 27 27 27 27 27 27 27 27 26 25 25 26 26 26 26 27 27 27
28 28 28 27 27 27 28 29 29 28 29 29 29 29 29 28 28 28 28 27 28 27 27 27 28 28 28 28 27 27 27 27 26 26 25 26 26 27 26 26 27 27 27
29 29 28 29 28 29 29 30 30 30 30 30 29 29 29 28 28 28 28 28 28 28 28 27 28 28 28 28 28 27 27 26 26 25 25 26 26 26 27 27 27 27 26
29 29 29 29 29 30 30 31 31 31 31 30 30 29 28 27 27 28 28 28 28 28 28 28 28 27 28 28 28 27 26 26 25 25 25 25 26 26 27 27 27 27 28
31 30 30 30 30 31 32 31 31 31 31 30 29 28 27 27 27 28 28 28 28 28 28 28 27 26 26 27 27 26 26 26 25 25 24 24 25 26 27 27 27 27 27
32 32 32 31 32 32 32 32 31 31 31 31 30 29 28 28 28 28 28 27 27 27 27 27 27 26 26 27 27 27 26 25 25 25 25 25 25 26 27 28 28 27 27
33 33 33 34 33 33 33 33 32 31 30 30 29 28 27 27 27 27 27 27 27 26 26 26 27 27 26 26 27 27 26 25 25 24 24 25 25 26 26 27 27 27 26
33 34 34 34 34 33 33 33 32 31 30 29 28 27 27 27 26 26 26 26 26 26 26 27 27 26 26 26 27 27 26 24 24 24 24 24 25 25 26 26 26 25 26
33 34 34 33 33 33 33 33 31 31 30 28 28 27 27 27 26 26 26 26 27 27 27 26 26 26 26 26 26 26 25 25 24 24 24 25 25 25 25 25 25 25 25
33 33 32 32 32 32 32 32 30 29 28 28 27 28 27 26 26 25 25 26 26 26 26 26 25 25 25 25 26 26 26 25 25 24 24 24 24 24 24 24 24 24 23
32 32 31 30 30 30 30 29 29 27 27 27 27 27 26 26 25 25 26 26 26 26 26 25 25 25 26 25 25 25 24 24 24 24 24 24 24 24 23 24 24 23 23
31 30 29 28 28 28 28 28 28 27 26 26 26 26 26 26 26 26 26 26 26 26 25 25 25 25 26 25 25 23 23 23 24 24 23 23 23 23 23 23 23 23 23
30 29 28 27 27 27 27 28 28 27 26 25 25 25 25 25 26 26 26 26 25 25 25 25 25 25 26 25 24 23 23 23 23 22 22 23 23 23 23 23 23 23 24
29 28 27 26 27 27 27 26 26 26 26 26 25 25 24 24 25 25 25 25 25 25 26 25 25 25 25 24 24 24 24 24 23 23 23 23 23 23 23 23 23 24 24
Wind_Direction
317 315 314 314 317 315 313 314 315 316 318 319 318 318 317 317 318 319 319 320 317 315 313 310 309 309 310 310 309 307 305 304 305 304 303 301 300 298 299 301 301 300 298
306 306 307 306 305 310 305 308 311 312 315 317 317 316 315 315 314 315 316 317 316 314 313 311 309 308 306 307 308 307 305 303 303 303 301 300 299 296 294 296 298 298 299
298 301 301 303 303 306 302 304 307 309 311 313 314 314 313 314 314 314 314 315 313 311 311 312 311 309 307 306 306 306 305 304 303 302 300 300 298 295 294 295 298 298 300
292 295 298 298 299 303 301 300 303 306 308 310 310 311 311 312 312 313 312 312 311 309 309 309 309 309 308 306 306 305 305 304 303 302 301 301 298 295 294 294 295 296 298
287 289 294 295 296 299 297 297 300 302 304 306 307 308 308 309 309 311 312 310 309 308 307 307 307 309 308 306 304 304 305 305 302 300 299 300 299 297 295 294 294 294 295
286 287 291 292 293 294 295 296 298 300 301 303 305 305 306 307 308 308 309 309 308 308 307 306 307 309 307 306 304 304 305 305 303 301 298 299 298 298 296 294 294 293 295
283 286 287 290 291 291 292 296 297 298 300 301 301 303 304 305 305 304 304 305 305 305 305 305 306 306 305 305 305 305 304 304 303 303 300 299 299 298 298 296 295 296 296
280 283 285 287 289 289 290 292 295 297 299 300 300 301 301 302 303 303 302 302 303 302 302 304 304 306 306 304 304 303 303 302 303 302 301 301 300 299 299 298 295 297 300
280 281 282 285 286 286 287 290 293 294 297 299 299 300 301 301 301 301 301 301 302 301 301 303 303 303 304 303 302 302 301 300 300 301 301 300 299 300 300 299 298 299 300
281 280 280 280 281 283 286 288 290 292 294 297 299 299 300 299 299 300 301 301 301 301 300 302 303 303 303 303 303 302 301 301 299 298 298 298 297 297 297 298 299 300 301
279 278 279 282 283 284 285 287 288 290 291 293 295 296 297 297 298 300 301 301 301 301 302 302 303 304 305 304 303 302 301 300 298 296 297 296 296 297 297 297 298 300 301
277 277 278 280 282 283 285 287 290 291 291 292 292 294 295 296 298 300 301 302 302 302 302 302 303 303 304 305 303 302 301 300 297 296 295 295 295 296 297 297 297 298 300
275 275 276 278 279 281 284 287 289 291 292 292 293 294 295 296 297 299 302 302 302 303 301 301 302 303 305 305 302 301 300 299 297 296 295 294 295 296 297 297 298 298 300
276 274 274 275 278 281 283 286 288 289 290 291 292 292 293 294 296 297 298 299 300 300 300 300 301 301 301 302 301 300 299 299 298 295 293 294 294 296 297 298 299 299 299
277 274 274 275 277 281 283 285 287 287 289 290 291 291 291 292 293 295 297 299 300 300 300 300 301 299 299 300 300 300 299 299 297 295 293 293 295 295 298 299 299 300 301
276 274 274 276 278 281 283 285 286 287 287 288 289 289 290 290 291 294 296 297 298 300 300 299 300 300 299 299 298 297 297 295 294 294 295 294 294 297 299 299 300 301 302
274 274 275 277 279 282 284 285 286 287 289 288 287 288 288 289 290 292 293 295 298 300 301 301 300 299 299 299 299 297 296 295 294 293 294 296 298 299 299 299 300 301 302
274 273 274 276 279 281 283 285 285 285 287 288 286 286 286 287 289 290 292 295 298 299 300 300 299 298 298 299 300 300 299 297 295 292 293 297 299 300 301 300 301 301 302
275 273 274 276 278 280 282 283 284 284 285 286 285 285 286 286 287 290 293 295 296 297 299 299 299 299 300 300 300 300 299 299 297 295 295 297 298 299 301 301 301 302 303
276 274 273 275 277 279 280 281 282 283 284 284 283 283 285 284 286 288 291 294 294 296 297 298 299 299 299 300 299 299 299 298 298 297 296 297 298 299 301 302 302 302 305
277 276 275 276 277 278 279 280 281 281 281 281 281 281 282 283 284 286 288 291 292 294 295 297 299 299 298 298 298 299 297 296 297 298 298 298 299 299 301 302 302 304 305
278 279 278 278 277 277 278 279 280 280 278 278 279 279 279 280 282 285 287 289 291 293 294 295 297 298 298 297 298 300 299 296 295 296 299 300 300 300 301 301 302 303 305
276 277 278 279 280 278 278 280 280 279 280 279 278 278 278 280 282 284 286 286 287 289 292 294 295 297 299 296 296 298 297 295 295 297 297 299 300 301 300 299 300 302 304
276 276 278 279 279 278 279 280 280 278 278 280 278 276 276 279 281 283 283 285 286 288 291 293 295 297 298 297 295 294 295 295 297 298 298 298 299 300 299 298 299 302 304
275 276 276 276 277 278 279 280 279 278 278 279 279 279 279 281 281 281 283 284 287 289 290 293 294 296 298 296 293 293 294 295 298 300 300 298 298 299 299 299 300 301 304
272 272 273 275 276 277 278 278 278 279 280 282 282 281 281 282 282 281 282 284 286 288 288 290 292 295 296 294 293 293 295 296 296 296 297 298 298 298 301 302 303 303 304
Height
5900 5900 5899 5898 5897 5896 5895 5893 5892 5890 5888 5886 5884 5882 5879 5877 5875 5872 5870 5867 5865 5862 5860 5858 5856 5853 5851 5849 5846 5844 5842 5840 5838 5836 5833 5830 5828 5826 5824 5822 5820 5818 5816
5899 5898 5896 5895 5894 5893 5892 5890 5889 5887 5885 5883 5881 5878 5876 5873 5871 5868 5866 5864 5861 5859 5857 5854 5852 5849 5847 5845 5842 5840 5837 5835 5833 5831 5828 5825 5823 5821 5819 5817 5815 5813 5811
5896 5895 5894 5892 5891 5890 5889 5887 5885 5884 5882 5880 5877 5875 5872 5870 5867 5865 5863 5860 5858 5855 5853 5850 5848 5845 5843 5840 5837 5835 5832 5830 5827 5825 5822 5820 5818 5816 5814 5812 5810 5807 5805
5893 5892 5890 5889 5888 5886 5885 5884 5882 5880 5878 5876 5874 5871 5869 5866 5864 5861 5859 5856 5853 5851 5848 5846 5843 5840 5838 5835 5832 5830 5827 5825 5822 5819 5817 5814 5812 5810 5808 5806 5804 5802 5799
5889 5888 5887 5885 5884 5883 5881 5880 5878 5876 5874 5872 5869 5867 5865 5862 5860 5857 5855 5852 5849 5846 5843 5840 5838 5835 5832 5829 5827 5824 5822 5819 5816 5814 5811 5809 5806 5804 5802 5799 5797 5796 5793
5885 5884 5882 5881 5880 5878 5877 5875 5874 5872 5870 5867 5865 5862 5860 5857 5855 5852 5850 5847 5844 5841 5838 5835 5832 5829 5827 5824 5821 5819 5816 5813 5811 5808 5806 5803 5801 5798 5796 5793 5791 5789 5787
5880 5879 5878 5876 5875 5873 5872 5870 5869 5867 5864 5862 5860 5857 5855 5852 5850 5847 5844 5842 5839 5836 5833 5830 5827 5824 5821 5818 5815 5812 5810 5807 5805 5803 5800 5797 5795 5792 5790 5787 5785 5782 5780
5875 5874 5872 5871 5870 5868 5867 5865 5863 5861 5859 5857 5854 5852 5849 5847 5844 5842 5839 5836 5833 5830 5827 5824 5821 5818 5815 5812 5809 5806 5804 5801 5798 5796 5794 5791 5788 5785 5783 5781 5778 5776 5773
5868 5867 5866 5865 5864 5862 5861 5859 5857 5855 5853 5851 5849 5846 5844 5841 5838 5835 5832 5830 5827 5824 5821 5818 5815 5812 5809 5806 5803 5800 5798 5795 5792 5789 5786 5784 5781 5778 5776 5774 5772 5769 5766
5862 5861 5860 5858 5857 5856 5854 5853 5851 5849 5847 5844 5842 5840 5837 5834 5831 5828 5825 5823 5820 5817 5814 5811 5808 5805 5802 5799 5796 5793 5791 5788 5785 5782 5779 5777 5774 5772 5769 5767 5764 5762 5759
5855 5854 5853 5852 5850 5849 5848 5846 5844 5842 5840 5838 5836 5833 5830 5828 5825 5822 5818 5815 5813 5810 5807 5804 5801 5798 5795 5792 5789 5786 5783 5780 5777 5775 5773 5770 5767 5765 5762 5760 5757 5754 5751
5848 5847 5846 5845 5843 5842 5840 5839 5837 5835 5833 5830 5828 5826 5823 5820 5817 5814 5811 5808 5805 5803 5800 5797 5794 5791 5788 5785 5782 5779 5776 5773 5770 5768 5765 5763 5760 5758 5755 5753 5750 5747 5743
5839 5839 5838 5837 5836 5834 5833 5831 5829 5827 5825 5823 5821 5818 5816 5813 5810 5807 5804 5801 5798 5795 5792 5789 5786 5783 5780 5777 5774 5771 5768 5765 5762 5760 5758 5755 5753 5750 5748 5745 5743 5739 5736
5831 5830 5829 5828 5828 5827 5825 5824 5822 5819 5817 5815 5812 5810 5807 5805 5802 5799 5796 5794 5791 5788 5785 5782 5779 5775 5772 5769 5767 5764 5761 5757 5755 5752 5750 5748 5745 5743 5740 5738 5735 5732 5729
5822 5821 5820 5819 5819 5818 5817 5815 5813 5811 5808 5806 5804 5801 5799 5797 5794 5791 5788 5786 5783 5780 5776 5774 5771 5768 5765 5762 5759 5756 5753 5750 5747 5745 5742 5740 5738 5735 5733 5730 5727 5724 5721
5813 5812 5812 5811 5810 5809 5808 5806 5804 5802 5799 5797 5795 5792 5790 5788 5785 5783 5780 5777 5774 5772 5768 5766 5763 5760 5757 5754 5751 5748 5745 5742 5740 5737 5735 5733 5730 5728 5725 5722 5720 5717 5714
5804 5803 5803 5802 5801 5800 5798 5797 5795 5793 5790 5788 5786 5783 5781 5779 5777 5775 5772 5769 5767 5764 5761 5758 5755 5752 5749 5746 5743 5740 5737 5735 5732 5730 5728 5725 5723 5720 5718 5715 5712 5709 5706
5795 5794 5793 5793 5792 5790 5789 5787 5785 5783 5782 5779 5777 5775 5773 5771 5769 5766 5764 5761 5759 5756 5753 5750 5747 5745 5742 5739 5736 5733 5730 5727 5725 5723 5720 5718 5715 5713 5710 5707 5704 5701 5698
5785 5785 5784 5783 5782 5781 5779 5777 5776 5774 5772 5770 5768 5766 5764 5762 5760 5758 5756 5754 5751 5749 5746 5743 5740 5737 5734 5731 5729 5726 5723 5720 5718 5715 5712 5710 5707 5705 5702 5699 5696 5693 5691
5775 5774 5774 5773 5772 5770 5769 5768 5766 5765 5763 5761 5760 5758 5756 5754 5752 5751 5749 5746 5744 5741 5739 5736 5733 5730 5727 5724 5722 5719 5716 5713 5710 5708 5705 5703 5700 5697 5694 5692 5689 5686 5683
5766 5764 5763 5763 5761 5760 5759 5758 5756 5755 5754 5753 5751 5750 5748 5746 5745 5743 5741 5739 5736 5734 5731 5729 5726 5723 5720 5717 5715 5712 5709 5706 5704 5701 5698 5695 5693 5690 5687 5685 5682 5679 5676
5756 5755 5754 5753 5751 5750 5749 5747 5746 5745 5745 5744 5742 5741 5739 5738 5736 5735 5733 5731 5729 5727 5724 5721 5719 5716 5713 5711 5708 5705 5702 5699 5697 5694 5691 5688 5686 5683 5680 5678 5675 5672 5669
5746 5745 5744 5743 5742 5741 5740 5738 5737 5736 5736 5735 5734 5732 5731 5730 5728 5727 5725 5723 5721 5719 5716 5714 5712 5709 5706 5703 5700 5698 5695 5692 5689 5686 5684 5682 5679 5676 5673 5671 5668 5666 5663
5736 5736 5735 5734 5733 5732 5731 5730 5729 5728 5727 5725 5724 5724 5723 5721 5720 5718 5717 5715 5713 5711 5708 5706 5704 5702 5699 5696 5693 5690 5688 5685 5682 5679 5677 5675 5672 5670 5667 5664 5662 5659 5656
5727 5726 5726 5725 5724 5723 5722 5721 5721 5719 5718 5717 5716 5715 5714 5713 5711 5710 5708 5706 5704 5702 5700 5698 5696 5694 5691 5688 5685 5683 5680 5678 5675 5672 5670 5668 5666 5663 5660 5657 5655 5652 5650
5717 5716 5716 5716 5715 5714 5714 5713 5712 5711 5710 5709 5708 5707 5706 5704 5703 5701 5700 5698 5696 5694 5692 5690 5688 5686 5683 5680 5678 5675 5673 5670 5668 5665 5663 5661 5659 5656 5654 5651 5648 5645 5643